Погода в Махачкале

Погода в Махачкале : погода сейчас, прогноз погоды и архив. Всё, что Вы хотите узнать о погоде в Махачкале!

Поиск расширенной информации на нашем сайте:

Другие новости

Новости СМИ2

Главная страница сайта

Новости сайта

03.07.2017

Напоминаем, что на нашем специализированном сайте Метеоцентр.Азия вы можете получить высокодетализированные автоматические прогнозы погоды по пунктам России, СНГ и мира в авиационном формате (включающие направление и скорость ветра, видимость, явления погоды, количество и форму облачности, нижнюю и верхнюю границу облачности).

Рекомендуем: Люстра хрустальная интернет.

Погода в Махачкале - сегодня

Время (UTC), дата Ветер
(°,м/с) 
Видим.   Явления Облачность Т
(°С)
Тd
(°С)
f(%) Тe
(°С)
Pmin
(гПа)
dP
(гПа)
Po
(мм)
O2
(г/м3)
Тmin Tmax R s Состояние
почвы
21 18.09.17 130 (ЮВ) н/о    н/о 
+23.6 +19.3 77 +40  1011.8  -0.5  760  277           
00 19.09.17 250 (З) 20000 м    ясно 
+18.9 +14.9 78 +28  1011.6  0.1  760  283           
03 19.09.17 320 (СЗ) 20000 м    ясно 
+16.8 +14 84 +25  1012.8  1.2  761  286  +16.7        сухая 
06 19.09.17 100 (В) 10 км    ясно кучево-дожд., средняя, верхняя 
[Cb cap|Ac inh|Cs]
+26 +16.6 56 +38  1013.6    750  272           
09 19.09.17 120 (ЮВ) 10 км    ясно кучево-дожд., средняя, верхняя 
[Cb cap|Ac inh|Cs]
+27.3 +18.5 59 +43  1013.3    750  271           
12 19.09.17 110 (В) 10 км    ясно кучево-дожд., средняя, верхняя 
[Cb cap|Ac inh|Cs]
+26.9 +19.9 66 +405  1012.4    75  21           
15 19.09.17 120 (ЮВ) 10 км    ясно 
+24.4 +20.1 77 +43  1012.6  0.2  761  277    +27.8       
18 19.09.17 тихо ()   10 км    4/0 верхняя 
[Ci fib]
+22.6 +19.2 81 +39  1013  0.4  761  279           
21 19.09.17 280 (З) 10 км    3/0 верхняя 
[Ci fib]
+20.5 +17.7 84 +34  1012.7  -0.3  761  281           
00 20.09.17 тихо ()   10 км    ясно кучево-дожд., средняя, верхняя 
[Cb cap|Ac inh|Cs]
+19.1 +17.4 90 +32  1012.4    750  279           
03 20.09.17 240 (ЮЗ) 10 км    ясно 
+19.1 +16.3 84 +32  1013  0.6  761  283  +18.6        замёрзшая 
06 20.09.17 300 (СЗ) 10 км    ясно кучево-дожд., средняя, верхняя 
[Cb cap|Ac inh|Cs]
+27.9 +16.1 49 +39  1014    750  271           
09 20.09.17 110 (В) 10 км    ясно 
+28.4 +21.1 65 +466      71  19           
12 20.09.17 110 (В) 10 км    ясно кучево-дожд., средняя, верхняя 
[Cb cap|Ac inh|Cs]
+26.8 +20.8 70 +47  1013.1    750  270           
15 20.09.17 110 (В) 10 км    ясно 
+24.9 +20 74 +43  1013.2  0.1  761  276           
18 20.09.17 130 (ЮВ) 10 км    ясно 
+24 +19.4 75 +41  1013.8  0.5  762  278           
21 20.09.17 130 (ЮВ) 10 км    ясно 
+23.8 +19.7 78 +41  1013.2  -0.5  761  278           
00 21.09.17 130 (ЮВ) 10 км    ясно 
+23.4 +18.4 74 +38  1012.7  -0.5  761  278           
03 21.09.17 120 (ЮВ) н/о    н/о 
+23.2 +18.1 73 +37  1013.1  0.4  761  279  +22.9    299    полностью
покрыта
пылью 
06 21.09.17 110 (В) 20000 м    ясно 
+26.5 +20.3 69 +45  1013.3  0.2  761  275           
09 21.09.17 090 (В) 20000 м    6/0 средняя, верхняя 
[Ac trans|Ci fib]
+26.7 +10.5 36 +28  1012.4  -0.8  761  277           
12 21.09.17 110 (В) 20000 м    ясно кучево-дожд., средняя, верхняя 
[Cb cap|Ac inh|Cs]
+25.8 +21.2 76 +47  1012.1    750  271           
15 21.09.17 110 (В) 20000 м    4/0 верхняя 
[Ci fib]
+24.6 +20.9 80 +45  1011.8  -0.2  760  276      299    замёрзшая 
18 21.09.17 120 (ЮВ) 6-10  20000 м    3/0 верхняя 
[Ci fib]
+23.9 +19.4 76 +41  1011.6  -0.2  760  277          замёрзшая 
21 21.09.17 120 (ЮВ) 6{11}  20000 м    ясно 
+23.7 +17.6 69 +37  1011.1  -0.5  760  278           
Время (UTC), дата Ветер
(°,м/с) 
Видим.   Явления Облачность Т
(°С)
Тd
(°С)
f(%) Тe
(°С)
Pmin
(гПа)
dP
(гПа)
Po
(мм)
O2
(г/м3)
Тmin Tmax R s Состояние
почвы

Для получения пояснительной информации подведите курсор к названию столбца.

ПОГОДА в Махачкале - архив

Всё, что Вы хотите узнать о погоде в Махачкале - удобно и подробно!

Выберите нужную дату (начиная с 1 января 2015* года) и нажмите кнопку "Найти".
Будут отображены архивные сводки погоды по пункту Махачкала, начиная с указанной даты.


Отображать данные в формате CSV (для использования в таблицах Excel)


Внимание! Наш архив погоды предназначен исключительно для личного некоммерческого использования в познавательных целях. Если Вам необходимы официальные справки о состоянии погоды (для производственных, юридических, коммерческих и т.п. целей), обращайтесь в органы Росгидромета.

*Примечание: данная дата относится к архиву по метеостанциям СССР (Россия, СНГ, Балтия).
Архив по метеостанциям Зарубежной Европы и Азии (кроме Китая) хранится 10 дней, по другим регионам земного шара (Китай, Африка, Америка, Австралия, Океания) - 1 день.

Махачкала - район местоположения метеостанции


Название, широта, долгота, высота метеостанции:
Махачкала 42.8°ш. 47.6°д. 32 м над ур. моря [Российская Федерация]

Дополнительная информация

В oтличие oт бoльшинства пoгoдных сайтoв мы публикуем пoдрoбную метеoинфoрмацию в детальнoм прoфессиoнальнoм фoрмате.

Характеристики температуры и влажнoсти вoздуха измеряются на высoте 2 м в тени вдали oт зданий и деревьев.
Скoрoсть ветра измеряется на высoте 10 м (на урoвне рoста челoвека скoрoсть ветра ниже в 1.5-2 раза). Если метеoстанция нахoдится в гoрoде или в лесу, тo скoрoсть ветра занижена на 2-4 м/с пo сравнению с oткрытым местoм. Скoрoсть ветра над акватoриями крупных рек и oзёр, а также на вершинах хoлмoв на 2-5 м/с выше, чем в oбычных услoвиях.
Атмoсфернoе давление в разных тoчках местнoсти мoжет значительнo oтличаться oт давления на метеoстанции, в зависимoсти oт услoвий рельефа (при пoдъёме на 10 м давление пoнижается примернo на 1 мм рт.ст.).